Location: Catstown
(52.4386°N, 7.2633°W)
Time: 14:34:33
(UTC+00:00)

Cosmos 1833 Rocket - Pass Details

Date: 20 January 2021
Orbit: 833 x 839 km, 71.0° (Epoch: 05 March)

Event Time Altitude Azimuth Distance (km) Brightness Sun altitude
Rises 19:28:45 0° 329° (NNW) 3,393 6.2 -23.0°
Reaches altitude 10° 19:31:16 10° 334° (NNW) 2,455 5.4 -23.4°
Enters shadow 19:36:37 53° 46° (NE) 1,022 2.8 -24.2°
